Location: Biltmore Gardens
(41.6070°N, 83.4666°W)
Time: 04:26:38
(UTC+00:00)

A-11 Canister half - Pass Details

Date: 25 April 2021
Orbit: 1526 x 1683 km, 47.3° (Epoch: 11 May)

Event Time Altitude Azimuth Distance (km) Brightness Sun altitude
Rises 04:09:42 0° 289° (WNW) 4,936 12.2 -32.0°
Reaches altitude 10° 04:14:46 10° 268° (W) 3,932 11.3 -32.3°
Maximum altitude 04:19:45 15° 238° (WSW) 3,521 10.7 -32.7°
Enters shadow 04:20:55 15° 230° (SW) 3,537 10.7 -32.7°
